Weather in Tokmovo

Russia / Republic of Mordovia     54°02′33″N   44°05′28″E
temp.,
°C
wind,
m/s
gust,
m/s
humid.,
%
clouds,
%
prec.,
mm/h
press.,
hPa
HPBL,
m
23 october, sat
sat2300:00+9wsw613765 0.1 1007525
03:00+7sw613760 0.1 1008473
06:00+6sw513813 0.0 1008416
09:00+8sw712663 0.0 10091020
12:00+11wsw8134745 0.0 10101655
15:00+11sw6114612 0.0 10101570
18:00+7ssw38585 0.0 1010142
21:00+6wsw3106824 0.0 1011218
24 october, sun
sun2400:00+4wsw38855 0.0 1011202
03:00+3wsw49885 0.0 1012232
06:00+2wsw410915 0.0 1012309
09:00+4w5108172 0.0 1013774
12:00+6wsw61064100 0.0 10141237
15:00+6wsw5965100 0.0 10131090
18:00+4wsw5988100 0.3 1013680
21:00+3w488790 0.8 1014468
25 october, mon
mon2500:00+3w4788100 0.1 1015624
03:00+2wnw4797100 0.2 1016403
06:00+1nnw51097100 0.4 1018574
09:00+1nnw61086100 0.7 1021787
12:00+1n7968100 0.1 10231022
15:00+3n69545 0.1 10251265
18:000nnw38695 0.0 1027190
21:00−2nnw357853 0.0 102992
26 october, tue
tue2600:00−1wnw237681 0.0 103048
03:00−2wsw35765 0.0 103094
06:00−2sw4107464 0.0 1029239
09:00+1sw6126068 0.0 1029427
12:00+5wsw71050100 0.0 1027688
15:00+5wsw71252100 0.0 1025724
18:00+2sw6146190 0.0 1026427
21:00+2wsw6146180 0.0 1025413
27 october, wed
wed2700:00+1wsw51364100 0.0 1024351
03:00+1sw51364100 0.0 1023332
06:00+2sw61361100 0.0 1023372
09:00+3sw61457100 0.0 1022450
12:00+6sw71447100 0.0 1021606
15:00+6sw71444100 0.0 1019695
18:00+5sw71444100 0.0 1019589
21:00+5sw71442100 0.0 1017633